Regional Weather Roundup
Issued by NWS

Home | Current Version | Previous Version | Text Only | Print | Product List | Glossary On
Versions: 1 2 3 4 5 6 7 8 9 10 11 12 13 14 15 16 17 18 19 20 21 22 23 24 25 26 27 28 29 30 31 32 33 34 35 36 37 38 39 40 41 42 43 44 45 46 47 48 49 50
000
ASHW40 PHFO 220143
RWRHI

WEATHER ROUNDUP FOR HAWAII
NATIONAL WEATHER SERVICE HONOLULU HI
300 PM HST MON AUG 21 2017

THIS IS AN AUTOMATED REPORT THAT HAS NOT BEEN QUALITY CONTROLLED.

NOTE..."FAIR" INDICATES FEW OR NO CLOUDS BELOW 12,000 FEET WITH NO
SIGNIFICANT WEATHER AND/OR OBSTRUCTIONS TO VISIBILITY.

* - THESE SITES REPORT LIMITED FIELDS
# - BUOY DATA PROVIDED BY PACIFIC ISLANDS OCEAN OBSERVING SYSTEM.

HIZ001>004-220200-
KAUAI-NIIHAU-

CITY           SKY/WX    TMP DP  RH WIND       PRES   REMARKS
LIHUE APT      TSTM      73  69  87 NW16G26   30.02R
PORT ALLEN*      N/A     73 N/A N/A NE9G16      N/A
POIPU*           N/A     72 N/A N/A VRB10G21    N/A
PRINCEVILLE*     N/A     70 N/A N/A N12G25      N/A
KOKOLE POINT*  NOT AVBL
MOLOAA DAIRY*    N/A     72  70  94 N3G22       N/A
WAIMEA HTS*      N/A     77  72  83 E3G12       N/A
PUU OPAE*        N/A     75  64  69 NE14G25     N/A
PUU LUA*       NOT AVBL
MAKAHA RIDGE*    N/A     75  64  69 NE12G30     N/A
$$

HIZ005>011-220200-
OAHU-

CITY           SKY/WX    TMP DP  RH WIND       PRES   REMARKS
HONOLULU       MOSUNNY   84  69  60 E17G26    29.95F
KALAELOA       PTSUNNY   89  71  55 NE8       29.96F HX  95
KANEOHE MCB    MOSUNNY   84  74  71 NE12G23   29.95  HX  91
WHEELER FIELD  PTSUNNY   81  72  74 E9        29.97F
BELLOWS*         N/A    N/A N/A N/A NE16        N/A
KAHUKU*          N/A    N/A N/A N/A NE8G17      N/A
WHEELER*         N/A    N/A N/A N/A E8G14       N/A
WAIANAE HARBOR   N/A    N/A N/A N/A SW7         N/A
DILLINGHAM*      N/A     82  70  65 SW6G15      N/A
KAHUKU TRN*      N/A     81  70  69 W9G18       N/A
KAWAILOA*        N/A     77  72  83 E12G20      N/A
KII*             N/A     82  75  78 E14         N/A
MAKUA RANGE*     N/A     73  63  68 W8G17       N/A
OAHU FOREST NW   N/A     75  70  83 E16G29      N/A
SCHOFIELD BRK*   N/A     82  72  69 MISG        N/A
SCHOFIELD S*   NOT AVBL
WAIANAE VLY*     N/A     84  73  70 W3          N/A  HX  91
KUAOKALA*        N/A     79  72  78 N13G30      N/A
HONOULIUULI*   NOT AVBL
MOKUOLOE IS*   NOT AVBL
PALEHUA*         N/A     73  66  78 NE8G18      N/A
WAIAWA PHB*    NOT AVBL
$$

HIZ012>013-220200-
MOLOKAI-

CITY           SKY/WX    TMP DP  RH WIND       PRES   REMARKS
MOLOKAI AIRPT  SUNNY     85  73  67 NE14G25   29.97F HX  91
KALAUPAPA      NOT AVBL
MAKAPULAPAI*     N/A     88  72  58 E15         N/A  HX  94
MOLOKAI 1*     NOT AVBL
PUU ALII*        N/A     72  66  82 N2G9        N/A
$$

HIZ016-220200-
KAHOOLAWE-

CITY           SKY/WX    TMP DP  RH WIND       PRES   REMARKS
KAHOOLAWE*     NOT AVBL
HAKIOAWA*        N/A     83  71  67 MISG        N/A
HONOKANAIA*      N/A     87  72  60 E18G32    29.89F HX  93
KANELOA*         N/A     82  72  69 E18G33    30.04S
KEALIALALO*    NOT AVBL
LUA MAKIKA*    NOT AVBL
$$

HIZ014>015-220200-
LANAI-

CITY           SKY/WX    TMP DP  RH WIND       PRES   REMARKS
LANAI CITY     FAIR      82  71  69 NE23      30.01F
LANAI 1*       NOT AVBL
$$

HIZ017>028-220200-
MAUI-

CITY           SKY/WX    TMP DP  RH WIND       PRES   REMARKS
KAHULUI        CLOUDY    84  73  69 NE21G31   29.96R HX  90
KAPALUA-W MAUI LGT RAIN  81  73  78 N13G24    29.98
HANA AIRPORT   CLOUDY    79  75  89 S1        30.00S
HANA*          NOT AVBL
HALEAKALA SUMM NOT AVBL
MAALAEA BAY*     N/A     88 N/A N/A VRB22G33    N/A
HALEAKALA*     NOT AVBL
KAUPO GAP*     NOT AVBL
KULA 1*          N/A     60  60  99 W6G12       N/A
$$

HIZ023>026-220200-
BIG ISLAND OF HAWAII COAST AND LOWER SLOPES-

CITY           SKY/WX    TMP DP  RH WIND       PRES   REMARKS
KAILUA KONA    PTSUNNY   87  72  60 W13       29.92F HX  93
HILO           LGT RAIN  79  75  89 E9        29.96F
HONOKAA*         N/A     73 N/A N/A VRB1        N/A
KAWAIHAE MWT*    N/A     86 N/A N/A SW9         N/A
KAWAIHAE*        N/A     84 N/A N/A S5        29.93F
SOUTH POINT*     N/A     82 N/A N/A N18G28      N/A
UPOLU AIRPORT* NOT AVBL
KAMUELA*         N/A     72  68  88 N7        30.08R
HAKALAU*         N/A     71  59  64 S3G10       N/A
KALOKO-HONOKO*   N/A     88  73  62 W12       29.93S HX  96
PALI 2*          N/A     79  64  61 W10G20      N/A
KEALAKOMO*       N/A     84  73  70 E18G25      N/A  HX  91
KAUPULEHU*       N/A     75  68  78 SE8G17      N/A
KAPAPALA*        N/A     80  74  82 SE3G15      N/A
LOWER KAHUKU*    N/A     73  72  94 E3G10       N/A
PUHE CS*         N/A     86  73  66 SW3G12      N/A  HX  93
PUHO CS*         N/A     88  71  56 NW7G18      N/A  HX  93
PTA KEAMUKU*     N/A     70  68  94 NE7G18      N/A
WAIKOLOA*        N/A     73  68  83 E9G18       N/A
$$

HIZ027>028-220200-
BIG ISLAND OF HAWAII INTERIOR AND SUMMMITS-

CITY           SKY/WX    TMP DP  RH WIND       PRES   REMARKS
BRADSHAW FIELD CLOUDY    66  55  67 CALM      30.32F
MK VISITOR CEN   N/A     55  45  67 SE9         N/A
MAUNA KEA*       N/A     39  34  81 E12         N/A
MAUNA LOA*       N/A     46  43  87 MISG        N/A
MAUNA LOA 1*   NOT AVBL
PTA KIPUKA*      N/A     70  64  83 W6G12       N/A
PTA RANGE 17*    N/A     59  57  94 N3G18       N/A
PTA WEST*        N/A     73  72  94 N3G32       N/A
NENE CABIN*      N/A     63  54  72 E7G15       N/A
AHUMOA*          N/A     62  59  91 N3          N/A
PTA PORTABLE*  NOT AVBL
PUU MALI*        N/A    N/A N/A N/A W6G18       N/A
$$

HIC003-220200-
NORTHWEST ISLANDS-

CITY           SKY/WX    TMP DP  RH WIND       PRES   REMARKS
MIDWAY ISLAND  PTSUNNY   86  75  70 E15       30.17F HX  95
MIDWAY NOS*      N/A     82 N/A N/A MISG      30.16F
FRENCH FRIGATE NOT AVBL
$$

PHZ110>124-180-220200-
BUOY REPORTS

STATION/POSITION TIME  TEMP    WIND        PRES    WAVE   SWELL
                       AIR SEA DIR/SP/G            HT/PER HT/DIR
                 (UTC) (F)     (DEG/KT/KT) (MB)    (FT/S) (FT/D)
BUOY 51001       0120   76 81  110/ 17/ 23 1016.4
BUOY 51101       0050   79 81   60/ 14/ 17 1016.3F   5/ 7   3/ 80
BUOY 51100       NOT AVBL
BUOY 51002       0120   81 81   60/ 14/ 16 1012.3
BUOY 51003       0050   82 83   40/ 10/ 12 1013.9F   4/13   3/120
BUOY 51004       0050      81   70/ 14/ 17 1012.3F   6/ 8   5/ 90
WAIMEA BAY#      0102      79                N/A     3/ 6
MOKAPU POINT#    0104      81                N/A     5/ 8   2/110
LANAI#           NOT AVBL
BARBERS PT 2#    NOT AVBL
PAUWELA#         0109      80                N/A     5/ 8
HILO#            0127      82                N/A     5/ 8   2/110
KANEOHE BAY#     NOT AVBL
KANEOHE BAY 2#   NOT AVBL
HANALEI#         0122      81                N/A     8/ 7   2/ 40
KAHULUI HARBOR   0112   80 82   60/ 10/ 15 1014.6
HONOLULU HARBOR  0118   84 81   70/  6/  9 1015.0
PEARL HARBOR#    0100      81                N/A     2/13   2/150
KILO NALU        NOT AVBL
HILO HARBOR      0112   80 80   50/  9/ 14 1014.4
MOKUOLOE         0036   83 83  100/ 13/ 16 1015.3F
NAWILIWILI       0118   69     280/ 12/ 17 1016.9
WHOTS BUOY       NOT AVBL
BUOY 51028       NOT AVBL
$$

......................KEY........................................
  SKY/WX - SKY CONDITIONS/PRESENT WEATHER
  TMP    - TEMPERATURE IN FAHRENHEIT
  DWPT   - DEWPOINT IN FAHRENHEIT
  RH     - RELATIVE HUMIDITY IN PERCENT
  WIND   - DIRECTION AND SPEED /MPH FOR ISLANDS...KTS FOR BUOYS/
  PRES   - MEAN SEA LEVEL PRESSURE IN INCHES OF HG
  VSB    - VISIBILITY IN MILES
  HX     - HEAT INDEX
  WCI    - WIND CHILL INDEX
  VRB    - VARIABLE WIND DIRECTION
  N/A    - NOT AVAILABLE



USA.gov is the U.S. government's official web portal to all federal, state and local government web resources and services.